SWR41G KLAX-LSZH

Flight info

Callsign SWR41G
Flight time N/A
Altitude 32000
Route LADYJ4 CSTRO DCT LLC/N0494F310 DCT BOI DCT COUTS/N0487F330 DCT WALSH DCT TAGOT DCT 55N101W 58N095W 62N085W 65N070W/M084F350 DCT EPMAN DCT 67N050W 67N040W 66N030W 64N020W DCT RATSU/N0487F350 DCT DEVBI DCT ADN DCT GODOS DCT SUTAL DCT GTQ DCT BAMEV DCT BLM
Aircraft B77W/H-SDE1E2E3FGHIJ2J3J4J5M1RWXY/LB1D1

Departure

Time N/A
Airport Los Angeles International Airport (KLAX)

Arrival

Time 2026-05-03 20:27
Airport Zürich Airport (LSZH)
Time Latitude Longitude Altitude Speed Heading
2026-05-03 20:15 47.42981 8.20467 14471 ft 388 kts 124°
2026-05-03 20:15 47.41459 8.23744 13977 ft 386 kts 124°
2026-05-03 20:15 47.39951 8.27008 13483 ft 383 kts 124°
2026-05-03 20:15 47.38451 8.30248 12996 ft 381 kts 124°
2026-05-03 20:16 47.36993 8.33424 12695 ft 371 kts 122°
2026-05-03 20:16 47.35855 8.36763 12596 ft 358 kts 110°
2026-05-03 20:16 47.35154 8.40222 12510 ft 346 kts 102°
2026-05-03 20:16 47.34825 8.43656 12401 ft 328 kts 95°
2026-05-03 20:17 47.34627 8.46893 12228 ft 308 kts 95°
2026-05-03 20:17 47.34420 8.50003 12023 ft 301 kts 96°
2026-05-03 20:17 47.34209 8.53039 11903 ft 293 kts 96°
2026-05-03 20:17 47.34004 8.55962 11720 ft 287 kts 96°
2026-05-03 20:18 47.33798 8.58878 11448 ft 286 kts 96°
2026-05-03 20:18 47.33589 8.61794 11127 ft 286 kts 96°
2026-05-03 20:18 47.33379 8.64706 10815 ft 286 kts 96°
2026-05-03 20:18 47.33169 8.67619 10542 ft 284 kts 96°
2026-05-03 20:19 47.32962 8.70497 10271 ft 282 kts 96°
2026-05-03 20:19 47.32754 8.73360 9991 ft 280 kts 96°
2026-05-03 20:19 47.32546 8.76217 9694 ft 280 kts 96°
2026-05-03 20:19 47.32338 8.79064 9402 ft 279 kts 96°
2026-05-03 20:20 47.32129 8.81905 9125 ft 278 kts 96°
2026-05-03 20:20 47.31929 8.84727 8820 ft 274 kts 92°
2026-05-03 20:20 47.32212 8.87443 8348 ft 276 kts 64°
2026-05-03 20:20 47.33394 8.89630 7981 ft 275 kts 35°
2026-05-03 20:21 47.35093 8.90820 7748 ft 267 kts 13°
2026-05-03 20:21 47.36911 8.91096 7612 ft 256 kts
2026-05-03 20:21 47.38651 8.91221 7508 ft 246 kts
2026-05-03 20:21 47.40324 8.91348 7435 ft 233 kts
2026-05-03 20:22 47.41830 8.90911 7292 ft 218 kts 329°
2026-05-03 20:22 47.42818 8.89371 7141 ft 203 kts 292°
2026-05-03 20:22 47.43195 8.87416 6987 ft 194 kts 283°
2026-05-03 20:22 47.43506 8.85508 6848 ft 188 kts 282°
2026-05-03 20:23 47.43733 8.83614 6607 ft 189 kts 278°
2026-05-03 20:23 47.43896 8.81692 6224 ft 186 kts 276°
2026-05-03 20:23 47.44037 8.79794 5763 ft 186 kts 276°
2026-05-03 20:23 47.44172 8.77896 5263 ft 185 kts 276°
2026-05-03 20:24 47.44306 8.76013 5018 ft 188 kts 276°
2026-05-03 20:24 47.44444 8.74076 4866 ft 190 kts 276°
2026-05-03 20:24 47.44581 8.72153 4482 ft 187 kts 276°
2026-05-03 20:24 47.44717 8.70245 3967 ft 186 kts 276°
2026-05-03 20:25 47.44851 8.68371 3474 ft 185 kts 276°
2026-05-03 20:25 47.44988 8.66460 2863 ft 191 kts 276°
2026-05-03 20:25 47.45124 8.64541 2536 ft 179 kts 276°
2026-05-03 20:25 47.45250 8.62776 2268 ft 165 kts 276°
2026-05-03 20:26 47.45364 8.61188 2042 ft 147 kts 276°
2026-05-03 20:26 47.45470 8.59687 1877 ft 148 kts 276°
2026-05-03 20:26 47.45578 8.58183 1652 ft 148 kts 276°
2026-05-03 20:26 47.45686 8.56680 1437 ft 147 kts 276°
2026-05-03 20:27 47.45784 8.55309 1406 ft 116 kts 276°
2026-05-03 20:27 47.45843 8.54474 1395 ft 40 kts 276°
2026-05-03 20:27 47.45898 8.54283 1406 ft 15 kts 327°
2026-05-03 20:27 47.45954 8.54309 1402 ft 7 kts 72°
2026-05-03 20:28 47.45953 8.54392 1397 ft 9 kts 93°
2026-05-03 20:28 47.45947 8.54494 1396 ft 11 kts 95°
2026-05-03 20:28 47.45938 8.54610 1399 ft 12 kts 97°
2026-05-03 20:28 47.45930 8.54732 1402 ft 13 kts 95°
2026-05-03 20:29 47.45922 8.54850 1397 ft 8 kts 96°
2026-05-03 20:29 47.45916 8.54935 1397 ft 8 kts 96°
2026-05-03 20:29 47.45910 8.55020 1399 ft 8 kts 96°
2026-05-03 20:29 47.45922 8.55102 1410 ft 9 kts 54°
2026-05-03 20:30 47.45968 8.55171 1409 ft 10 kts 57°
2026-05-03 20:30 47.45979 8.55291 1404 ft 13 kts 93°
2026-05-03 20:30 47.45973 8.55397 1405 ft 10 kts 95°
2026-05-03 20:30 47.45969 8.55480 1409 ft 5 kts 82°
2026-05-03 20:31 47.45993 8.55511 1409 ft 5 kts 23°
2026-05-03 20:31 47.46011 8.55519 1410 ft 1 kts 14°
2026-05-03 20:31 47.46018 8.55522 1411 ft 1 kts 16°
2026-05-03 20:31 47.46028 8.55525 1411 ft 1 kts 11°
2026-05-03 20:32 47.46035 8.55526 1411 ft 0 kts
2026-05-03 20:32 47.46037 8.55526 1411 ft 1 kts
2026-05-03 20:32 47.46042 8.55527 1411 ft 1 kts
2026-05-03 20:32 47.46047 8.55528 1411 ft 0 kts